Tracking 31027 objects as of 19-Jul-2025
HD Live streaming from Space Station
objects crossing your sky now

STARLINK-32160

Track STARLINK-32160 now!
10-day predictions
STARLINK-32160 is classified as:


NORAD ID: 60261
Int'l Code: 2024-131G
Perigee: 481.5 km
Apogee: 483.4 km
Inclination: 53.2 °
Period: 94.1 minutes
Semi major axis: 6853 km
RCS: Unknown
Launch date: July 27, 2024
Source: United States (US)
Launch site: AIR FORCE EASTERN TEST RANGE (AFETR)
Your satellite tracking list
STARLINK-5403
Track 1 satellite(s)




NASA's NSSDC Master Catalog

Two Line Element Set (TLE):
1 60261U 24131G   25199.33344534  .00005752  00000-0  20643-3 0  9998
2 60261  53.1605  61.2725 0001414 105.3224 254.7933 15.30157775 55887
Source of the keplerian elements: AFSPC